sat.trackr.live / text

‹ back to catalog

UNKNOWN

NORAD 87071

UNKNOWN UNKNOWN UNKNOWN

§ Identity

Operator
Country
Launch date
Launch site
Launch vehicle
Mass (kg)
RCS (m²)

External: N2YO · Heavens-Above

§ Orbital elements

Epoch: 2026-09-18T02:48:30.728448Z

Period
103.76 min
Inclination
61.2160°
Eccentricity
0.0483241
Mean motion
13.87780305 rev/d
Perigee alt
583.0 km
Apogee alt
1,289.9 km
Semi-major
7,314.6 km
B*
1.4768e-3
RAAN
159.8177°
Arg perigee
16.7360°
Mean anomaly
344.9000°
Rev number
64,123

§ Raw data

UNKNOWN1 87071U          26261.11702232  .00004353  00000+0  14768-2 0  99902 87071  61.2160 159.8177 0483241  16.7360 344.9000 13.87780305641232

JSON: /api/v1/satellites/87071 · /tle

For live sub-satellite position, see the globe view (requires WebGL).

§ Visibility from observer

Set your observer location to see the next 7 days of passes ≥ 10°. The values pass through the URL so the page stays shareable.

No JS? Fill the form by hand. The geolocation button needs JavaScript.